#timestamp,LO_Frequency,Hit,StdDev 
1503122415.8,286047002.0,N,1.3
1503122435.6,286047002.2,N,1.4
1503122455.5,286047000.1,N,1.4
1503122475.3,286046999.8,N,1.4
1503122495.1,286047002.0,N,1.4
1503122515.9,286047002.7,N,1.4
1503122535.7,286047002.4,N,1.5
1503122555.6,286047002.3,N,1.4
1503122575.4,286047002.5,N,1.3
1503122595.2,286047002.0,N,1.3
1503122615.1,286047002.5,N,1.2
1503122616.0,286047002.5,N,1.2
1503122635.8,286046999.7,N,1.3
1503122655.6,286046999.8,N,1.3
1503122675.5,286047002.4,N,1.3
1503122695.3,286047002.5,N,1.2
1503122715.2,286047001.9,N,1.1
1503122735.9,286047001.6,N,0.9
1503122755.7,286047002.2,N,0.9
1503122775.6,286047002.8,N,0.9
1503122795.4,286046999.9,N,1.0
1503122815.2,286047002.5,N,1.0
1503122835.1,286047002.7,N,1.0
1503122836.0,286047002.7,N,1.0
1503122855.8,286047000.2,N,1.0
1503122875.7,286047000.9,N,1.0
1503122895.5,286046998.7,N,1.2
1503122915.3,286046998.6,N,1.3
1503122935.2,286046998.7,N,1.4
1503122955.0,286046999.4,N,1.4
1503122955.9,286046999.4,N,1.4
1503122975.8,286046999.6,N,1.5
1503122995.6,286046999.2,N,1.5
1503123015.4,286046996.6,N,1.7
1503123035.3,286046999.0,N,1.7
1503123055.1,286046999.0,N,1.7
1503123056.0,286046999.0,N,1.7
1503123075.8,286046998.8,N,1.7
1503123095.7,286046998.9,N,1.7
1503123115.5,286046999.2,N,1.7
1503123135.3,286046997.7,N,1.7
1503123155.2,286046997.4,N,1.7
1503123175.0,286046997.0,N,1.8
1503123175.9,286046997.0,N,1.9
1503123195.8,286046997.0,N,1.9
1503123215.6,286046997.9,N,1.8
1503123235.4,286046997.8,N,1.8
1503123255.3,286046995.7,N,1.9
1503123275.1,286046995.3,N,1.9
1503123295.8,286046995.8,N,1.9
1503123315.7,286046996.1,N,1.9
1503123335.5,286046995.9,N,1.8
1503123355.4,286046995.2,N,1.7
1503123375.2,286046995.7,N,1.5
1503123395.0,286046996.0,N,1.5
1503123395.9,286046996.0,N,1.4
1503123415.8,286046995.9,N,1.5
1503123435.6,286046996.1,N,1.5
1503123455.5,286046993.4,Y,0.0
1503123475.3,286046997.8,P,0.2
1503123495.1,286046995.6,P,1.0
1503123515.9,286046995.6,P,1.0
1503123535.7,286046995.0,Y,0.0
1503123555.5,286047000.9,P,2.1
1503123575.4,286046998.8,N,1.8
1503123595.2,286046998.7,N,1.5
1503123615.1,286046998.7,N,1.4
1503123616.0,286046998.7,N,1.2
1503123635.8,286046998.9,N,1.2
1503123655.6,286046998.3,N,1.1
1503123675.5,286046998.9,N,1.0
1503123695.3,286046997.1,N,1.1
1503123715.2,286046997.1,N,1.1
1503123735.9,286046997.3,N,1.1
1503123755.7,286046997.5,N,1.1
1503123775.6,286046997.4,N,1.1
1503123795.4,286046997.3,N,1.1
1503123815.2,286046997.0,N,1.1
1503123835.1,286046996.7,Y,0.0
1503123836.0,286046996.7,P,0.7
1503123855.8,286046998.7,N,0.8
1503123875.7,286046998.3,N,0.8
1503123895.5,286046999.6,N,0.9
1503123915.3,286046996.8,Y,0.0
1503123935.2,286047001.1,P,1.4
1503123955.0,286047001.1,N,1.3
1503123955.9,286047001.1,N,1.2
1503123975.8,286047000.4,N,1.1
1503123995.6,286047000.2,N,1.0
1503124015.4,286047000.5,N,0.9
1503124035.3,286047001.2,N,0.9
1503124055.1,286046998.2,N,1.1
1503124075.8,286047000.9,N,1.1
1503124095.7,286047000.0,N,1.0
1503124115.5,286047000.2,N,1.0
1503124135.3,286047000.4,N,1.0
1503124155.2,286047000.6,N,0.9
1503124175.0,286042802.3,Y,0.0
1503124175.9,286047000.8,P,0.3
1503124195.8,286046998.2,P,1.1
1503124215.6,286047001.2,N,1.2
1503124235.4,286047001.1,N,1.1
1503124255.3,286046998.7,N,1.2
1503124275.1,286047001.1,N,1.1
1503124295.9,286046998.1,N,1.3
1503124315.7,286046998.2,N,1.3
1503124335.5,286046998.7,N,1.3
1503124355.4,286046998.6,N,1.3
1503124375.2,286046998.1,N,1.3
1503124395.0,286047000.7,N,1.3
1503124395.9,286047000.7,N,1.3
1503124415.8,286047000.8,N,1.3
1503124435.6,286047000.5,N,1.2
1503124455.5,286047000.8,N,1.2
1503124475.3,286047000.3,N,1.2
1503124495.1,286047000.1,N,1.2
1503124515.9,286047000.8,N,1.2
1503124535.7,286046999.2,N,1.1
1503124555.6,286046998.9,N,1.1
1503124575.4,286046998.5,N,1.1
1503124595.2,286046998.7,N,1.1
1503124615.1,286046999.0,N,1.1
1503124616.0,286046999.0,N,1.1
1503124635.8,286046998.6,N,1.1
1503124655.6,286046998.1,N,1.1
1503124675.5,286047000.7,N,1.1
1503124695.3,286047000.8,N,1.1
1503124715.2,286047001.0,N,1.1
1503124735.9,286047000.4,N,1.1
1503124755.7,286047000.1,N,1.1
1503124775.6,286046999.9,N,1.1
1503124795.4,286046999.8,N,1.0
1503124815.2,286047000.0,N,1.0
1503124835.1,286047000.2,N,1.0
1503124836.0,286047000.2,N,1.0
1503124855.8,286046999.9,N,0.9
1503124875.7,286047002.6,N,1.0
1503124895.5,286047002.2,N,1.1
1503124915.3,286047002.1,N,1.1
1503124935.2,286047001.4,N,1.1
1503124955.0,286047001.8,N,1.1
1503124955.9,286047001.8,N,1.2
1503124975.8,286047003.9,Y,0.0
1503124995.6,286047001.4,P,0.6
1503125015.4,286047001.6,N,0.6
1503125035.3,286047001.6,N,0.6
1503125055.1,286047001.6,N,0.5
1503125075.8,286047004.3,Y,0.0
1503125095.7,286047002.7,P,0.7
1503125115.5,286047002.0,N,0.6
1503125135.4,286047002.0,P,0.5
1503125155.2,286047002.1,Y,0.0
1503125175.0,286047000.7,P,0.6
1503125175.9,286047000.7,N,0.6
1503125195.8,286047000.7,N,0.6
1503125215.6,286047001.0,N,0.5
1503125235.4,286047000.7,N,0.5
1503125255.3,286047001.0,N,0.4
1503125275.1,286047000.6,N,0.4
1503125295.9,286046999.9,N,0.5
1503125315.7,286047000.2,N,0.5
1503125335.5,286047000.5,N,0.5
1503125355.4,286047000.5,N,0.5
1503125375.2,286047000.6,N,0.5
1503125395.1,286047002.4,Y,0.0
1503125396.0,286047002.4,P,0.9
1503125415.8,286047002.3,N,0.8
1503125435.6,286047000.4,N,0.9
1503125455.5,286047000.9,N,0.8
1503125475.3,286047000.5,N,0.8
1503125495.1,286047002.4,N,0.9
1503125515.9,286047002.1,N,0.9
1503125535.7,286047002.5,N,0.9
1503125555.6,286047001.4,N,0.8
1503125575.4,286047001.5,N,0.8
1503125595.2,286047001.8,N,0.8
1503125615.1,286047001.4,N,0.7
1503125616.0,286047001.4,N,0.7
1503125635.8,286047003.8,Y,0.0
1503125655.6,286047002.3,P,0.4
1503125675.5,286047002.2,P,0.3
1503125695.3,286047002.3,P,0.3
1503125715.2,286047002.8,Y,0.0
1503125735.9,286046998.7,P,1.7
1503125755.7,286046999.0,N,1.5
1503125775.6,286046998.2,N,1.5
1503125795.4,286047001.2,N,1.5
1503125815.3,286046999.3,N,1.4
1503125835.1,286046998.4,N,1.4
1503125836.0,286046998.4,N,1.3
1503125855.8,286047001.2,N,1.4
1503125875.7,286047000.4,N,1.3
1503125895.5,286046998.6,N,1.3
1503125915.3,286046998.7,N,1.3
1503125935.2,286047001.2,N,1.3
1503125955.0,286047001.0,N,1.3
1503125955.9,286047001.0,N,1.3
1503125975.8,286047000.6,N,1.3
1503125995.6,286047000.3,N,1.2
